Torna al catalogo

GLOBALSTAR M064

AttivoComunicazioniLEO
NORAD 26084·PAYLOAD·🇺🇸 United States

Lanciato Feb 8, 2000 da Cape Canaveral Space Force Station

Loading…

Prossimi Passaggi (prossime 24 ore)

TLE

AggiornatoSource: Space-Track

Epoca: Sep 13, 2026, 20:35 UTC

1 26084U 00008D   26256.85796135 -.00000077  00000-0  89075-4 0  9991
2 26084  52.0018  90.2257 0001122 172.4293 187.6556 11.88546358221043

Traccia GLOBALSTAR M064 in tempo reale con AllMySat

Download on the App Store